User: anonymous   Login
Location: Bremen
(53.0793°N, 8.8017°E)
Time: 08:50:36
(UTC+01:00)
Language:

Courier 1B - Orbit

View from above orbital plane
View from above orbital plane
View from above satellite
View from above satellite

Ground track
Ground track

The orbit data is extracted from the following two-line orbital elements,

1 00058U 60013A   21336.48659472  .00000103  00000-0  25308-4 0  9999
2 00058  28.3276 270.4053 0165070 162.3023 198.3356 13.46330120 10492
Epoch (UTC): 02 December 2021 11:40:41
Eccentricity: 0.0165070
inclination: 28.3276°
perigee height: 962 km
apogee height: 1209 km
right ascension of ascending node: 270.4053°
argument of perigee: 162.3023°
revolutions per day: 13.46330120
mean anomaly at epoch: 198.3356°
orbit number at epoch: 1049

The dashed part of the orbit path shows where the satellite is in the earth's shadow,  

DLR